Time,TemperatureF,DewpointF,PressureIn,WindDirection,WindDirectionDegrees,WindSpeedMPH,WindSpeedGustMPH,Humidity,HourlyPrecipIn,Conditions,Clouds,dailyrainin,SoftwareType,DateUTC
2013-06-04 00:02:00,73.0,52.0,29.94,SSW,208,0.0,0.0,48,0.00,,,0.00,,2013-06-04 05:02:00,
2013-06-04 00:12:00,73.0,52.0,29.94,SSW,208,0.0,0.0,48,0.00,,,0.00,,2013-06-04 05:12:00,
2013-06-04 00:22:00,72.0,51.0,29.95,WSW,237,0.0,0.0,47,0.00,,,0.00,,2013-06-04 05:22:00,
2013-06-04 00:32:00,72.0,51.0,29.95,WSW,237,0.0,0.0,47,0.00,,,0.00,,2013-06-04 05:32:00,
2013-06-04 00:42:00,72.0,51.0,29.95,WSW,237,0.0,0.0,47,0.00,,,0.00,,2013-06-04 05:42:00,
2013-06-04 00:52:00,72.0,52.0,29.95,WSW,237,0.0,0.0,49,0.00,,,0.00,,2013-06-04 05:52:00,
2013-06-04 01:02:00,72.0,52.0,29.95,WSW,237,0.0,0.0,49,0.00,,,0.00,,2013-06-04 06:02:00,
2013-06-04 01:12:00,72.0,52.0,29.95,WSW,237,0.0,0.0,49,0.00,,,0.00,,2013-06-04 06:12:00,
2013-06-04 01:22:00,72.0,53.0,29.94,WSW,237,0.0,0.0,51,0.00,,,0.00,,2013-06-04 06:22:00,
2013-06-04 01:32:00,72.0,53.0,29.94,WSW,237,0.0,0.0,51,0.00,,,0.00,,2013-06-04 06:32:00,
2013-06-04 01:42:00,72.0,53.0,29.94,WSW,237,0.0,0.0,51,0.00,,,0.00,,2013-06-04 06:42:00,
2013-06-04 01:52:00,71.0,55.0,29.93,WSW,237,0.0,0.0,57,0.00,,,0.00,,2013-06-04 06:52:00,
2013-06-04 02:02:00,71.0,55.0,29.93,WSW,237,0.0,0.0,57,0.00,,,0.00,,2013-06-04 07:02:00,
2013-06-04 02:12:00,71.0,55.0,29.93,WSW,237,0.0,0.0,57,0.00,,,0.00,,2013-06-04 07:12:00,
2013-06-04 02:22:00,71.0,56.0,29.93,WSW,237,0.0,0.0,59,0.00,,,0.00,,2013-06-04 07:22:00,
2013-06-04 02:32:00,71.0,56.0,29.93,WSW,237,0.0,0.0,59,0.00,,,0.00,,2013-06-04 07:32:00,
2013-06-04 02:42:00,71.0,56.0,29.93,WSW,237,0.0,0.0,59,0.00,,,0.00,,2013-06-04 07:42:00,
2013-06-04 02:52:00,70.0,56.0,29.92,WSW,237,0.0,0.0,62,0.00,,,0.00,,2013-06-04 07:52:00,
2013-06-04 03:02:00,70.0,56.0,29.92,WSW,237,0.0,0.0,62,0.00,,,0.00,,2013-06-04 08:02:00,
2013-06-04 03:12:00,70.0,56.0,29.92,WSW,237,0.0,0.0,62,0.00,,,0.00,,2013-06-04 08:12:00,
2013-06-04 03:22:00,69.0,55.0,29.93,WSW,237,0.0,0.0,62,0.00,,,0.00,,2013-06-04 08:22:00,
2013-06-04 03:32:00,69.0,55.0,29.93,WSW,237,0.0,0.0,62,0.00,,,0.00,,2013-06-04 08:32:00,
2013-06-04 03:42:00,69.0,55.0,29.93,WSW,237,0.0,0.0,62,0.00,,,0.00,,2013-06-04 08:42:00,
2013-06-04 03:52:00,69.0,56.0,29.94,WSW,237,0.0,0.0,63,0.00,,,0.00,,2013-06-04 08:52:00,
2013-06-04 04:02:00,69.0,56.0,29.94,WSW,237,0.0,0.0,63,0.00,,,0.00,,2013-06-04 09:02:00,
2013-06-04 04:12:00,69.0,56.0,29.94,WSW,237,0.0,0.0,63,0.00,,,0.00,,2013-06-04 09:12:00,
2013-06-04 04:22:00,69.0,56.0,29.93,West,275,0.0,0.0,63,0.00,,,0.00,,2013-06-04 09:22:00,
2013-06-04 04:33:00,69.0,56.0,29.93,West,275,0.0,0.0,63,0.00,,,0.00,,2013-06-04 09:33:00,
2013-06-04 04:43:00,69.0,56.0,29.93,West,275,0.0,0.0,63,0.00,,,0.00,,2013-06-04 09:43:00,
2013-06-04 04:53:00,71.0,57.0,29.93,WSW,241,0.0,0.0,61,0.00,,,0.00,,2013-06-04 09:53:00,
2013-06-04 05:02:00,71.0,57.0,29.93,WSW,241,0.0,0.0,61,0.00,,,0.00,,2013-06-04 10:02:00,
2013-06-04 05:12:00,71.0,57.0,29.93,WSW,241,0.0,0.0,61,0.00,,,0.00,,2013-06-04 10:12:00,
2013-06-04 05:22:00,72.0,58.0,29.94,WNW,288,0.0,0.0,61,0.00,,,0.00,,2013-06-04 10:22:00,
2013-06-04 05:32:00,72.0,58.0,29.94,WNW,288,0.0,0.0,61,0.00,,,0.00,,2013-06-04 10:32:00,
2013-06-04 05:42:00,72.0,58.0,29.94,WNW,288,0.0,0.0,61,0.00,,,0.00,,2013-06-04 10:42:00,
2013-06-04 05:53:00,71.0,57.0,29.93,WNW,282,1.0,7.0,61,0.00,,,0.00,,2013-06-04 10:53:00,
2013-06-04 06:02:00,71.0,57.0,29.93,WNW,282,1.0,7.0,61,0.00,,,0.00,,2013-06-04 11:02:00,
2013-06-04 06:12:00,71.0,57.0,29.93,WNW,282,1.0,7.0,61,0.00,,,0.00,,2013-06-04 11:12:00,
2013-06-04 06:22:00,71.0,56.0,29.93,West,280,0.0,0.0,60,0.00,,,0.00,,2013-06-04 11:22:00,
2013-06-04 06:32:00,71.0,56.0,29.93,West,280,0.0,0.0,60,0.00,,,0.00,,2013-06-04 11:32:00,
2013-06-04 06:43:00,71.0,56.0,29.93,West,280,0.0,0.0,60,0.00,,,0.00,,2013-06-04 11:43:00,
2013-06-04 06:52:00,71.0,56.0,29.93,WSW,257,0.0,3.0,60,0.00,,,0.00,,2013-06-04 11:52:00,
2013-06-04 07:02:00,71.0,56.0,29.93,WSW,257,0.0,3.0,60,0.00,,,0.00,,2013-06-04 12:02:00,
2013-06-04 07:12:00,71.0,56.0,29.93,WSW,257,0.0,3.0,60,0.00,,,0.00,,2013-06-04 12:12:00,
2013-06-04 07:22:00,71.0,56.0,29.94,WNW,289,0.0,0.0,59,0.00,,,0.00,,2013-06-04 12:22:00,
2013-06-04 07:32:00,71.0,56.0,29.94,WNW,289,0.0,0.0,59,0.00,,,0.00,,2013-06-04 12:32:00,
2013-06-04 07:42:00,71.0,56.0,29.94,WNW,289,0.0,0.0,59,0.00,,,0.00,,2013-06-04 12:42:00,
2013-06-04 07:52:00,71.0,55.0,29.94,West,265,0.0,7.0,57,0.00,,,0.00,,2013-06-04 12:52:00,
2013-06-04 08:02:00,71.0,55.0,29.94,West,265,0.0,7.0,57,0.00,,,0.00,,2013-06-04 13:02:00,
2013-06-04 08:12:00,71.0,55.0,29.94,West,265,0.0,7.0,57,0.00,,,0.00,,2013-06-04 13:12:00,
2013-06-04 08:22:00,72.0,55.0,29.96,NW,322,1.0,8.0,56,0.00,,,0.00,,2013-06-04 13:22:00,
2013-06-04 08:32:00,72.0,55.0,29.96,NW,322,1.0,8.0,56,0.00,,,0.00,,2013-06-04 13:32:00,
2013-06-04 08:42:00,72.0,55.0,29.96,NW,322,1.0,8.0,56,0.00,,,0.00,,2013-06-04 13:42:00,
2013-06-04 08:52:00,74.0,56.0,29.95,West,263,0.0,7.0,54,0.00,,,0.00,,2013-06-04 13:52:00,
2013-06-04 09:02:00,74.0,56.0,29.95,West,263,0.0,7.0,54,0.00,,,0.00,,2013-06-04 14:02:00,
2013-06-04 09:12:00,74.0,56.0,29.95,West,263,0.0,7.0,54,0.00,,,0.00,,2013-06-04 14:12:00,
2013-06-04 09:22:00,77.0,56.0,29.98,WNW,292,1.0,10.0,48,0.00,,,0.00,,2013-06-04 14:22:00,
2013-06-04 09:32:00,77.0,56.0,29.98,WNW,292,1.0,10.0,48,0.00,,,0.00,,2013-06-04 14:32:00,
2013-06-04 09:43:00,77.0,56.0,29.98,WNW,292,1.0,10.0,48,0.00,,,0.00,,2013-06-04 14:43:00,
2013-06-04 09:52:00,79.0,56.0,29.98,WSW,241,0.0,8.0,45,0.00,,,0.00,,2013-06-04 14:52:00,
2013-06-04 10:02:00,79.0,56.0,29.98,WSW,241,0.0,8.0,45,0.00,,,0.00,,2013-06-04 15:02:00,
2013-06-04 10:12:00,79.0,56.0,29.98,WSW,241,0.0,8.0,45,0.00,,,0.00,,2013-06-04 15:12:00,
2013-06-04 10:22:00,81.0,54.0,29.97,West,268,0.0,8.0,40,0.00,,,0.00,,2013-06-04 15:22:00,
2013-06-04 10:33:00,81.0,54.0,29.97,West,268,0.0,8.0,40,0.00,,,0.00,,2013-06-04 15:33:00,
2013-06-04 10:42:00,81.0,54.0,29.97,West,268,0.0,8.0,40,0.00,,,0.00,,2013-06-04 15:42:00,
2013-06-04 10:53:00,83.0,53.0,29.96,SW,230,5.0,12.0,36,0.00,,,0.00,,2013-06-04 15:53:00,
2013-06-04 11:03:00,83.0,53.0,29.96,SW,230,5.0,12.0,36,0.00,,,0.00,,2013-06-04 16:03:00,
2013-06-04 11:12:00,83.0,53.0,29.96,SW,230,5.0,12.0,36,0.00,,,0.00,,2013-06-04 16:12:00,
2013-06-04 11:22:00,86.0,53.0,29.97,West,260,1.0,10.0,32,0.00,,,0.00,,2013-06-04 16:22:00,
2013-06-04 11:33:00,86.0,53.0,29.97,West,260,1.0,10.0,32,0.00,,,0.00,,2013-06-04 16:33:00,
2013-06-04 11:42:00,86.0,53.0,29.97,West,260,1.0,10.0,32,0.00,,,0.00,,2013-06-04 16:42:00,
2013-06-04 11:53:00,88.0,52.0,29.97,WNW,287,6.0,11.0,29,0.00,,,0.00,,2013-06-04 16:53:00,
2013-06-04 12:02:00,88.0,52.0,29.97,WNW,287,6.0,11.0,29,0.00,,,0.00,,2013-06-04 17:02:00,
2013-06-04 12:12:00,88.0,52.0,29.97,WNW,287,6.0,11.0,29,0.00,,,0.00,,2013-06-04 17:12:00,
2013-06-04 12:23:00,90.0,50.0,29.96,West,267,1.0,11.0,26,0.00,,,0.00,,2013-06-04 17:23:00,
2013-06-04 12:32:00,90.0,50.0,29.96,West,267,1.0,11.0,26,0.00,,,0.00,,2013-06-04 17:32:00,
2013-06-04 12:42:00,90.0,50.0,29.96,West,267,1.0,11.0,26,0.00,,,0.00,,2013-06-04 17:42:00,
2013-06-04 12:52:00,91.0,47.0,29.96,NW,309,3.0,10.0,22,0.00,,,0.00,,2013-06-04 17:52:00,
2013-06-04 13:02:00,91.0,47.0,29.96,NW,309,3.0,10.0,22,0.00,,,0.00,,2013-06-04 18:02:00,
2013-06-04 13:12:00,91.0,47.0,29.96,NW,309,3.0,10.0,22,0.00,,,0.00,,2013-06-04 18:12:00,
2013-06-04 13:22:00,93.0,45.0,29.94,SSE,154,1.0,7.0,19,0.00,,,0.00,,2013-06-04 18:22:00,
2013-06-04 13:32:00,93.0,45.0,29.94,SSE,154,1.0,7.0,19,0.00,,,0.00,,2013-06-04 18:32:00,
2013-06-04 13:42:00,93.0,45.0,29.94,SSE,154,1.0,7.0,19,0.00,,,0.00,,2013-06-04 18:42:00,
2013-06-04 13:53:00,95.0,46.0,29.95,WNW,296,0.0,9.0,19,0.00,,,0.00,,2013-06-04 18:53:00,
2013-06-04 14:02:00,95.0,46.0,29.95,WNW,296,0.0,9.0,19,0.00,,,0.00,,2013-06-04 19:02:00,
2013-06-04 14:12:00,95.0,46.0,29.95,WNW,296,0.0,9.0,19,0.00,,,0.00,,2013-06-04 19:12:00,
2013-06-04 14:22:00,97.0,43.0,29.93,NW,323,0.0,6.0,16,0.00,,,0.00,,2013-06-04 19:22:00,
2013-06-04 14:32:00,97.0,43.0,29.93,NW,323,0.0,6.0,16,0.00,,,0.00,,2013-06-04 19:32:00,
2013-06-04 14:42:00,97.0,43.0,29.93,NW,323,0.0,6.0,16,0.00,,,0.00,,2013-06-04 19:42:00,
2013-06-04 14:52:00,98.0,44.0,29.93,WSW,248,4.0,13.0,16,0.00,,,0.00,,2013-06-04 19:52:00,
2013-06-04 15:02:00,98.0,44.0,29.93,WSW,248,4.0,13.0,16,0.00,,,0.00,,2013-06-04 20:02:00,
2013-06-04 15:12:00,98.0,44.0,29.93,WSW,248,4.0,13.0,16,0.00,,,0.00,,2013-06-04 20:12:00,
2013-06-04 15:22:00,97.0,43.0,29.93,SE,143,6.0,16.0,16,0.00,,,0.00,,2013-06-04 20:22:00,
2013-06-04 15:32:00,97.0,43.0,29.93,SE,143,6.0,16.0,16,0.00,,,0.00,,2013-06-04 20:32:00,
2013-06-04 15:42:00,97.0,43.0,29.93,SE,143,6.0,16.0,16,0.00,,,0.00,,2013-06-04 20:42:00,
2013-06-04 15:53:00,94.0,44.0,29.91,South,175,1.0,13.0,18,0.00,,,0.00,,2013-06-04 20:53:00,
2013-06-04 16:02:00,94.0,44.0,29.91,South,175,1.0,13.0,18,0.00,,,0.00,,2013-06-04 21:02:00,
2013-06-04 16:12:00,94.0,44.0,29.91,South,175,1.0,13.0,18,0.00,,,0.00,,2013-06-04 21:12:00,
2013-06-04 16:22:00,89.0,45.0,29.91,SSW,209,2.0,16.0,22,0.00,,,0.00,,2013-06-04 21:22:00,
2013-06-04 16:33:00,89.0,45.0,29.91,SSW,209,2.0,16.0,22,0.00,,,0.00,,2013-06-04 21:33:00,
2013-06-04 16:42:00,89.0,45.0,29.91,SSW,209,2.0,16.0,22,0.00,,,0.00,,2013-06-04 21:42:00,
2013-06-04 16:53:00,81.0,59.0,29.92,South,176,0.0,0.0,47,0.00,,,0.00,,2013-06-04 21:53:00,
2013-06-04 17:02:00,81.0,59.0,29.92,South,176,0.0,0.0,47,0.00,,,0.00,,2013-06-04 22:02:00,
2013-06-04 17:12:00,81.0,59.0,29.92,South,176,0.0,0.0,47,0.00,,,0.00,,2013-06-04 22:12:00,
2013-06-04 17:22:00,87.0,46.0,29.89,SSE,160,0.0,0.0,24,0.00,,,0.00,,2013-06-04 22:22:00,
2013-06-04 17:32:00,87.0,46.0,29.89,SSE,160,0.0,0.0,24,0.00,,,0.00,,2013-06-04 22:32:00,
2013-06-04 17:42:00,87.0,46.0,29.89,SSE,160,0.0,0.0,24,0.00,,,0.00,,2013-06-04 22:42:00,
2013-06-04 17:52:00,94.0,45.0,29.88,SSW,202,0.0,6.0,19,0.00,,,0.00,,2013-06-04 22:52:00,
2013-06-04 18:02:00,94.0,45.0,29.88,SSW,202,0.0,6.0,19,0.00,,,0.00,,2013-06-04 23:02:00,
2013-06-04 18:12:00,94.0,45.0,29.88,SSW,202,0.0,6.0,19,0.00,,,0.00,,2013-06-04 23:12:00,
2013-06-04 18:22:00,93.0,42.0,29.87,North,8,0.0,5.0,17,0.00,,,0.00,,2013-06-04 23:22:00,
2013-06-04 18:32:00,93.0,42.0,29.87,North,8,0.0,5.0,17,0.00,,,0.00,,2013-06-04 23:32:00,
2013-06-04 18:42:00,93.0,42.0,29.87,North,8,0.0,5.0,17,0.00,,,0.00,,2013-06-04 23:42:00,
2013-06-04 18:52:00,93.0,42.0,29.87,NNW,340,0.0,0.0,17,0.00,,,0.00,,2013-06-04 23:52:00,
2013-06-04 19:02:00,93.0,42.0,29.87,NNW,340,0.0,0.0,17,0.00,,,0.00,,2013-06-05 00:02:00,
2013-06-04 19:12:00,93.0,42.0,29.87,NNW,340,0.0,0.0,17,0.00,,,0.00,,2013-06-05 00:12:00,
2013-06-04 19:22:00,94.0,43.0,29.86,NW,308,0.0,3.0,17,0.00,,,0.00,,2013-06-05 00:22:00,
2013-06-04 19:32:00,94.0,43.0,29.86,NW,308,0.0,3.0,17,0.00,,,0.00,,2013-06-05 00:32:00,
2013-06-04 19:42:00,94.0,43.0,29.86,NW,308,0.0,3.0,17,0.00,,,0.00,,2013-06-05 00:42:00,
2013-06-04 19:52:00,93.0,40.0,29.87,SSE,168,0.0,2.0,16,0.00,,,0.00,,2013-06-05 00:52:00,
2013-06-04 20:02:00,93.0,40.0,29.87,SSE,168,0.0,2.0,16,0.00,,,0.00,,2013-06-05 01:02:00,
2013-06-04 20:12:00,93.0,40.0,29.87,SSE,168,0.0,2.0,16,0.00,,,0.00,,2013-06-05 01:12:00,
2013-06-04 20:22:00,89.0,43.0,29.89,East,99,0.0,6.0,20,0.00,,,0.00,,2013-06-05 01:22:00,
2013-06-04 20:32:00,89.0,43.0,29.89,East,99,0.0,6.0,20,0.00,,,0.00,,2013-06-05 01:32:00,
2013-06-04 20:42:00,89.0,43.0,29.89,East,99,0.0,6.0,20,0.00,,,0.00,,2013-06-05 01:42:00,
2013-06-04 20:52:00,84.0,46.0,29.91,ESE,121,0.0,10.0,27,0.00,,,0.00,,2013-06-05 01:52:00,
2013-06-04 21:02:00,84.0,46.0,29.91,ESE,121,0.0,10.0,27,0.00,,,0.00,,2013-06-05 02:02:00,
2013-06-04 21:12:00,84.0,46.0,29.91,ESE,121,0.0,10.0,27,0.00,,,0.00,,2013-06-05 02:12:00,
2013-06-04 21:22:00,81.0,44.0,29.91,SE,128,0.0,11.0,27,0.00,,,0.00,,2013-06-05 02:22:00,
2013-06-04 21:32:00,81.0,44.0,29.91,SE,128,0.0,11.0,27,0.00,,,0.00,,2013-06-05 02:32:00,
2013-06-04 21:42:00,79.0,45.0,29.93,SE,131,0.0,14.0,30,0.00,,,0.00,,2013-06-05 02:42:00,
2013-06-04 21:52:00,79.0,45.0,29.93,SE,131,0.0,14.0,30,0.00,,,0.00,,2013-06-05 02:52:00,
2013-06-04 22:02:00,79.0,45.0,29.93,SE,131,0.0,14.0,30,0.00,,,0.00,,2013-06-05 03:02:00,
2013-06-04 22:12:00,78.0,46.0,29.92,SSE,167,0.0,0.0,32,0.00,,,0.00,,2013-06-05 03:12:00,
2013-06-04 22:22:00,78.0,46.0,29.92,SSE,167,0.0,0.0,32,0.00,,,0.00,,2013-06-05 03:22:00,
2013-06-04 22:33:00,78.0,46.0,29.92,SSE,167,0.0,0.0,32,0.00,,,0.00,,2013-06-05 03:33:00,
2013-06-04 22:43:00,78.0,46.0,29.92,SSE,167,0.0,0.0,32,0.00,,,0.00,,2013-06-05 03:43:00,
2013-06-04 22:53:00,76.0,46.0,29.93,WNW,295,0.0,3.0,35,0.00,,,0.00,,2013-06-05 03:53:00,
2013-06-04 23:02:00,76.0,46.0,29.93,WNW,295,0.0,3.0,35,0.00,,,0.00,,2013-06-05 04:02:00,
2013-06-04 23:13:00,76.0,46.0,29.93,WNW,295,0.0,3.0,35,0.00,,,0.00,,2013-06-05 04:13:00,
2013-06-04 23:22:00,75.0,46.0,29.94,SW,226,0.0,0.0,36,0.00,,,0.00,,2013-06-05 04:22:00,
2013-06-04 23:33:00,75.0,46.0,29.94,SW,226,0.0,0.0,36,0.00,,,0.00,,2013-06-05 04:33:00,
2013-06-04 23:42:00,75.0,46.0,29.94,SW,226,0.0,0.0,36,0.00,,,0.00,,2013-06-05 04:42:00,
2013-06-04 23:53:00,74.0,46.0,29.93,SW,226,0.0,0.0,37,0.00,,,0.00,,2013-06-05 04:53:00,